Location: Benque
(43.2594°N, 0.9178°E)
Time: 03:27:16
(UTC+00:00)

Cosmos 2263 Rocket - Pass Details

Date: 24 January 2020
Orbit: 823 x 849 km, 71.0° (Epoch: 17 February)

Event Time Altitude Azimuth Distance (km) Brightness Sun altitude
Rises 19:30:59 0° 196° (SSW) 3,342 5.5 -27.9°
Reaches altitude 10° 19:33:24 10° 194° (SSW) 2,414 4.7 -28.3°
Enters shadow 19:36:24 33° 186° (S) 1,346 3.2 -28.9°
